Date,TemperatureHighF,TemperatureAvgF,TemperatureLowF,DewpointHighF,DewpointAvgF,DewpointLowF,HumidityHigh,HumidityAvg,HumidityLow,PressureMaxIn,PressureMinIn,WindSpeedMaxMPH,WindSpeedAvgMPH,GustSpeedMaxMPH,PrecipitationSumIn
2013-5-1,71,66,60,12,8,3,10,10,10,30.11,30.01,3,1,10,0.00
2013-5-2,72,66,63,13,8,5,10,10,10,30.10,30.02,4,1,12,0.00
2013-5-3,69,64,59,10,6,3,10,10,10,30.03,29.92,6,2,17,0.00
2013-5-4,63,59,54,6,3,-2,10,10,10,29.92,29.76,6,2,15,0.43
2013-5-5,76,63,57,16,6,1,10,10,10,29.77,29.67,4,1,17,0.74
2013-5-6,71,60,52,12,4,-3,10,10,10,29.85,29.72,7,1,16,0.00
2013-5-7,75,62,52,15,5,-3,10,10,10,29.89,29.78,6,1,12,0.00
2013-5-8,82,69,55,20,10,0,10,10,10,29.94,29.85,6,1,12,0.00
2013-5-9,87,74,61,24,14,4,10,10,10,30.01,29.92,5,1,11,0.00
2013-5-10,87,75,61,24,15,4,10,10,10,29.99,29.86,4,1,18,0.00
2013-5-11,84,74,64,22,14,6,10,10,10,29.91,29.77,4,1,14,0.00
2013-5-12,81,72,62,19,12,5,10,10,10,29.96,29.77,8,3,18,0.00
2013-5-13,76,64,49,15,6,-5,10,10,10,30.10,29.95,6,2,14,0.00
2013-5-14,80,65,47,19,7,-7,10,10,10,30.18,30.04,4,1,11,0.00
2013-5-15,92,78,64,28,17,7,10,10,10,30.06,29.90,6,1,15,0.00
2013-5-16,87,77,68,24,16,9,10,10,10,29.99,29.90,4,1,10,0.00
2013-5-17,89,76,62,26,15,5,10,10,10,30.02,29.93,4,0,13,0.00
2013-5-18,83,74,67,21,14,9,10,10,10,30.04,29.95,2,0,8,0.00
2013-5-19,80,74,69,19,14,10,10,10,10,30.02,29.94,2,0,6,0.01
2013-5-20,86,76,69,23,16,10,10,10,10,30.02,29.92,2,0,8,0.00
2013-5-21,92,76,68,28,15,10,10,10,10,29.97,29.86,3,0,14,0.00
2013-5-22,88,76,65,25,16,7,10,10,10,29.92,29.79,4,1,9,0.00
2013-5-23,88,77,68,25,16,9,10,10,10,29.88,29.77,5,1,17,0.07
2013-5-24,86,75,64,23,14,7,10,10,10,30.09,29.83,9,2,21,0.00
2013-5-25,83,68,51,21,10,-4,10,10,10,30.23,30.07,4,1,10,0.00
2013-5-26,86,72,57,23,12,1,10,10,10,30.17,30.06,5,1,11,0.00
2013-5-27,91,76,62,27,16,5,10,10,10,30.14,30.02,3,1,13,0.00
2013-5-28,90,78,64,26,17,6,10,10,10,30.13,30.04,5,1,12,0.00
2013-5-29,90,78,62,26,17,5,10,10,10,30.15,30.04,4,1,10,0.00
2013-5-30,93,79,65,28,18,7,10,10,10,30.16,30.02,3,1,11,0.00
2013-5-31,92,80,69,28,19,10,10,10,10,30.13,29.99,4,1,10,0.00